Torna al catalogo

DELTA 1 DEB

AttivoPO
NORAD 12291·DEBRIS·🇺🇸 United States

Lanciato Mar 5, 1978 da Vandenberg Space Force Base

Loading…

Prossimi Passaggi (prossime 24 ore)

TLE

AggiornatoSource: Space-Track

Epoca: Sep 14, 2026, 02:21 UTC

1 12291U 78026EK  26257.09844515  .00001397  00000-0  49458-3 0  9999
2 12291  99.2759 101.6089 0041325 156.5227 320.7126 14.35861682346442

Traccia DELTA 1 DEB in tempo reale con AllMySat

Download on the App Store